Location: Baili�vre
(50.0696°N, 4.2409°E)
Time: 16:37:49
(UTC+00:00)

Cosmos 1763 Rocket - Pass Details

Date: 08 August 2020
Orbit: 732 x 780 km, 74.0° (Epoch: 24 September)

Event Time Altitude Azimuth Distance (km) Brightness Sun altitude
Rises 22:21:59 0° 331° (NNW) 3,274 8.3 -21.4°
Reaches altitude 10° 22:24:29 10° 325° (NW) 2,344 7.1 -21.6°
Maximum altitude 22:29:28 42° 256° (WSW) 1,106 4.3 -21.9°
Enters shadow 22:31:05 33° 215° (SW) 1,292 4.4 -22.0°
